Regional Weather Roundup
Issued by NWS

Home | Current Version | Previous Version | Graphics & Text | Print | Product List | Glossary On
Versions: 1 2 3 4 5 6 7 8 9 10 11 12 13 14 15 16 17 18 19 20 21 22 23 24 25 26 27 28 29 30 31 32 33 34 35 36 37 38 39 40 41 42 43 44 45 46 47 48 49 50
585
ASUS43 KDMX 261001
RWRIA

WEATHER ROUNDUP FOR IOWA
NATIONAL WEATHER SERVICE DES MOINES IA
500 AM CDT WED APR 26 2017

NOTE: "FAIR" INDICATES FEW OR NO CLOUDS BELOW 12,000 FEET WITH NO
SIGNIFICANT WEATHER AND/OR OBSTRUCTIONS TO VISIBILITY.

* - THESE STATIONS ARE NOT NWS STATIONS...THUS NOT UNDER NWS
QUALITY CONTROL.  THEY ALSO DO NOT REPORT WEATHER SUCH
AS PRECIPITATION OR FOG.

IAZ001>003-012>014-020>022-031>034-043>046-261100-
   NORTHWEST IOWA

CITY           SKY/WX    TMP DP  RH WIND       PRES   REMARKS
CARROLL *      CLOUDY    39  39 100 NW21G26   29.53R WCI  29
DENISON *      CLOUDY    37  37 100 NW17      29.59R WCI  28
LE MARS *      CLOUDY    36  36 100 NW16G22   29.63R FOG     WCI  26
ORANGE CITY *  CLOUDY    36  36 100 NW14G22   29.59R WCI  27
SHELDON *      CLOUDY    36  36 100 NW20G26   29.56R WCI  25
SIOUX CITY     CLOUDY    36  34  92 NW20G37   29.62R WCI  25
SPENCER        CLOUDY    39  38  96 NW21G29   29.52S WCI  29
STORM LAKE *   MIX PCPN  37  37 100 NW21G26   29.54R WCI  27
$$

IAZ055>058-069>071-079>083-090>094-261100-
   SOUTHWEST IOWA

CITY           SKY/WX    TMP DP  RH WIND       PRES   REMARKS
ATLANTIC *     CLOUDY    39  37  93 NW18G24   29.55R WCI  30
AUDUBON *      CLOUDY    39  36  87 NW13G21   29.55R WCI  32
CLARINDA *       N/A     41  39  93 NW14G24   29.60R
COUNCIL BLFS * CLOUDY    37  37 100 NW18G28   29.60S FOG     WCI  27
CRESTON *      CLOUDY    41  41 100 NW21      29.54R
HARLAN  *      CLOUDY    39  39 100 NW18G28   29.61R FOG     WCI  30
LAMONI         LGT RAIN  44  42  93 NW16      29.50S
RED OAK *      CLOUDY    41  37  87 NW17G31   29.59R
SHENANDOAH *   CLOUDY    41  37  87 NW10G20   29.61R
$$

IAZ047>049-059>061-072>074-084-261100-
   CENTRAL IOWA

CITY           SKY/WX    TMP DP  RH WIND       PRES   REMARKS
AMES           CLOUDY    45  44  97 NW16G24   29.46R
ANKENY *       CLOUDY    45  43  93 NW13G23   29.48R
BOONE *        CLOUDY    43  43 100 NW20G26   29.45S
CHARITON *     RAIN      45  45 100 NW13      29.48R
DES MOINES     CLOUDY    46  42  86 NW18G24   29.48S
GRINNELL*      RAIN      48  46  94 W12       29.45F
KNOXVILLE *    LGT RAIN  46  45  93 W15       29.46R
MARSHALLTOWN   CLOUDY    48  46  93 W13       29.43R
NEWTON *       CLOUDY    46  45  93 NW13      29.44F
PELLA *        RAIN      47  46  95 W10       29.46S
PERRY *        CLOUDY    44  41  90 NW13      29.50R
$$

IAZ004>006-015-016-023>025-035-036-261100-
   NORTH CENTRAL IOWA

CITY           SKY/WX    TMP DP  RH WIND       PRES   REMARKS
ALGONA *       CLOUDY    43  43 100 NW15G24   29.47R
CLARION *      CLOUDY    45  45 100 NW15      29.45R
ESTHERVILLE    LGT RAIN  39  39 100 NW26      29.49S FOG     WCI  28
FORT DODGE *   CLOUDY    43  37  81 NW12G20   29.48S
MASON CITY     CLOUDY    47  46  97 W14       29.42S
FOREST CITY *  CLOUDY    45  45 100 NW12      29.42S
WEBSTER CITY * CLOUDY    45  43  93 NW20      29.44S
IOWA FALLS *   CLOUDY    47  45  91 W17       29.44R
$$

IAZ007>011-017>019-026>030-037>042-050>054-066-261100-
   NORTHEAST IOWA

CITY           SKY/WX    TMP DP  RH WIND       PRES   REMARKS
CEDAR RAPIDS   RAIN      55  55 100 NW8       29.40R FOG
CHARLES CITY * CLOUDY    54  54 100 W12       29.38F
CLINTON *      CLOUDY    63  55  75 SE8       29.38F
DECORAH *      CLOUDY    57  55  94 CALM      29.36F
DUBUQUE        CLOUDY    57  55  93 W7        29.37F
MONTICELLO *   MOCLDY    59  57  94 S7        29.37S
OELWEIN *      CLOUDY    57  57 100 S7        29.38R
WATERLOO       CLOUDY    53  49  86 W10       29.39R
$$

IAZ064-065-067-068-078-261100-
   EAST CENTRAL IOWA

CITY           SKY/WX    TMP DP  RH WIND       PRES   REMARKS
DAVENPORT      MOCLDY    61  55  81 SW8       29.39F
IOWA CITY      CLOUDY    59  54  83 W10       29.42R
MUSCATINE *    LGT RAIN  61  59  94 W12       29.38F
QUAD CITIES    CLOUDY    66  51  58 S12       29.37F
$$

IAZ062-063-075>077-085>089-095>099-261100-
   SOUTHEAST IOWA

CITY           SKY/WX    TMP DP  RH WIND       PRES   REMARKS
BURLINGTON     CLOUDY    61  60  97 S10       29.40F
FAIRFIELD *    CLOUDY    54  48  82 NW8       29.42F
FORT MADISON * LGT RAIN  63  61  94 SW10      29.41R
KEOKUK *       RAIN      63  61  94 SW12      29.41R
OSKALOOSA *    CLOUDY    50  47  92 NW13      29.44S
CENTERVILLE *  LGT RAIN  48  46  93 W9        29.48R
OTTUMWA        CLOUDY    50  49  96 W9        29.44S
WASHINGTON *   CLOUDY    55  52  88 W13       29.42F
$$

ABBREVIATIONS USED IN REMARKS
   TC - TEMPERATURES IN CELSIUS
  WCI - WIND CHILL INDEX
   HX - HEAT INDEX
  VSB - VISIBILITY
$$





USA.gov is the U.S. government's official web portal to all federal, state and local government web resources and services.